N6150M KORL-KISM

Flight info

Callsign N6150M
Flight time 0h 16m
Altitude 3500
Route
Aircraft C152/L-DOV/C

Departure

Time 2026-05-04 23:33
Airport Orlando Executive Airport (KORL)

Arrival

Time 2026-05-04 23:49
Airport Kissimmee Gateway Airport (KISM)
Time Latitude Longitude Altitude Speed Heading
2026-05-04 23:25 28.54771 -81.33532 113 ft 0 kts 130°
2026-05-04 23:26 28.54772 -81.33532 113 ft 0 kts 130°
2026-05-04 23:27 28.54768 -81.33530 113 ft 0 kts 172°
2026-05-04 23:27 28.54749 -81.33560 113 ft 12 kts 234°
2026-05-04 23:27 28.54683 -81.33619 113 ft 14 kts 220°
2026-05-04 23:28 28.54616 -81.33642 112 ft 10 kts 128°
2026-05-04 23:28 28.54557 -81.33603 110 ft 12 kts 225°
2026-05-04 23:28 28.54509 -81.33727 108 ft 21 kts 246°
2026-05-04 23:28 28.54449 -81.33845 109 ft 14 kts 221°
2026-05-04 23:29 28.54376 -81.33911 107 ft 9 kts 229°
2026-05-04 23:29 28.54370 -81.33919 107 ft 0 kts 218°
2026-05-04 23:30 28.54368 -81.33921 107 ft 3 kts 217°
2026-05-04 23:30 28.54323 -81.33937 106 ft 9 kts 154°
2026-05-04 23:30 28.54297 -81.33891 105 ft 6 kts 65°
2026-05-04 23:31 28.54298 -81.33887 105 ft 0 kts 69°
2026-05-04 23:31 28.54299 -81.33884 105 ft 4 kts 65°
2026-05-04 23:31 28.54374 -81.33688 109 ft 49 kts 70°
2026-05-04 23:32 28.54544 -81.33276 205 ft 62 kts 71°
2026-05-04 23:32 28.54724 -81.32837 362 ft 61 kts 73°
2026-05-04 23:32 28.54889 -81.32374 479 ft 66 kts 74°
2026-05-04 23:32 28.55010 -81.31894 669 ft 62 kts 77°
2026-05-04 23:33 28.55237 -81.31484 855 ft 62 kts 47°
2026-05-04 23:33 28.55568 -81.31145 1010 ft 69 kts 46°
2026-05-04 23:33 28.55946 -81.30825 1206 ft 68 kts 46°
2026-05-04 23:33 28.56324 -81.30499 1379 ft 70 kts 43°
2026-05-04 23:34 28.56736 -81.30162 1514 ft 71 kts 47°
2026-05-04 23:34 28.57045 -81.29722 1673 ft 69 kts 66°
2026-05-04 23:34 28.57218 -81.29158 1591 ft 87 kts 74°
2026-05-04 23:34 28.57569 -81.28634 1569 ft 87 kts 21°
2026-05-04 23:35 28.58093 -81.28971 1582 ft 98 kts 300°
2026-05-04 23:35 28.58297 -81.29727 1510 ft 105 kts 288°
2026-05-04 23:35 28.58328 -81.30547 1496 ft 103 kts 261°
2026-05-04 23:35 28.58075 -81.31303 1457 ft 105 kts 239°
2026-05-04 23:36 28.57751 -81.32017 1516 ft 99 kts 236°
2026-05-04 23:36 28.57393 -81.32688 1522 ft 98 kts 230°
2026-05-04 23:36 28.56988 -81.33333 1542 ft 101 kts 229°
2026-05-04 23:36 28.56594 -81.33970 1615 ft 97 kts 227°
2026-05-04 23:37 28.56184 -81.34573 1651 ft 96 kts 226°
2026-05-04 23:37 28.55742 -81.35158 1659 ft 101 kts 223°
2026-05-04 23:37 28.55253 -81.35784 1535 ft 108 kts 221°
2026-05-04 23:37 28.54753 -81.36411 1498 ft 106 kts 221°
2026-05-04 23:38 28.54223 -81.37012 1427 ft 107 kts 217°
2026-05-04 23:38 28.53676 -81.37568 1420 ft 104 kts 215°
2026-05-04 23:38 28.53137 -81.38089 1437 ft 101 kts 214°
2026-05-04 23:38 28.52576 -81.38607 1385 ft 105 kts 214°
2026-05-04 23:39 28.52023 -81.39157 1369 ft 109 kts 215°
2026-05-04 23:39 28.51433 -81.39702 1318 ft 109 kts 211°
2026-05-04 23:39 28.50861 -81.40197 1345 ft 104 kts 208°
2026-05-04 23:39 28.50313 -81.40736 1400 ft 99 kts 215°
2026-05-04 23:40 28.49824 -81.41210 1506 ft 93 kts 212°
2026-05-04 23:40 28.49346 -81.41671 1665 ft 88 kts 212°
2026-05-04 23:40 28.49044 -81.41971 1764 ft 85 kts 204°
2026-05-04 23:40 28.48532 -81.42346 1820 ft 85 kts 198°
2026-05-04 23:41 28.47850 -81.42828 1916 ft 89 kts 204°
2026-05-04 23:41 28.47322 -81.43222 1958 ft 93 kts 205°
2026-05-04 23:41 28.46954 -81.43503 1941 ft 98 kts 207°
2026-05-04 23:41 28.46385 -81.43911 2002 ft 94 kts 202°
2026-05-04 23:42 28.45806 -81.44306 2023 ft 96 kts 203°
2026-05-04 23:42 28.45215 -81.44711 2005 ft 101 kts 204°
2026-05-04 23:42 28.44622 -81.45149 2021 ft 101 kts 207°
2026-05-04 23:42 28.44034 -81.45605 2042 ft 101 kts 202°
2026-05-04 23:43 28.43442 -81.46009 2042 ft 99 kts 205°
2026-05-04 23:43 28.42863 -81.46429 2032 ft 99 kts 203°
2026-05-04 23:43 28.42282 -81.46849 2011 ft 98 kts 203°
2026-05-04 23:43 28.41699 -81.47221 2019 ft 94 kts 194°
2026-05-04 23:44 28.41061 -81.47313 1923 ft 94 kts 168°
2026-05-04 23:44 28.40396 -81.47285 1827 ft 96 kts 167°
2026-05-04 23:44 28.39719 -81.47221 1710 ft 99 kts 165°
2026-05-04 23:44 28.39060 -81.47165 1642 ft 94 kts 176°
2026-05-04 23:45 28.38361 -81.47229 1517 ft 106 kts 176°
2026-05-04 23:45 28.37596 -81.47260 1381 ft 111 kts 175°
2026-05-04 23:45 28.36819 -81.47294 1329 ft 110 kts 174°
2026-05-04 23:45 28.36084 -81.47292 1278 ft 110 kts 172°
2026-05-04 23:46 28.35332 -81.47199 1206 ft 107 kts 166°
2026-05-04 23:46 28.34599 -81.47071 1119 ft 106 kts 166°
2026-05-04 23:46 28.33892 -81.46943 1018 ft 97 kts 160°
2026-05-04 23:46 28.33275 -81.46711 886 ft 90 kts 148°
2026-05-04 23:47 28.32708 -81.46372 748 ft 91 kts 139°
2026-05-04 23:47 28.32180 -81.45973 653 ft 95 kts 139°
2026-05-04 23:47 28.31611 -81.45578 521 ft 87 kts 144°
2026-05-04 23:47 28.31143 -81.45309 379 ft 74 kts 141°
2026-05-04 23:48 28.30718 -81.44979 358 ft 73 kts 133°
2026-05-04 23:48 28.30309 -81.44656 333 ft 71 kts 144°
2026-05-04 23:48 28.29904 -81.44378 219 ft 66 kts 140°
2026-05-04 23:48 28.29548 -81.44118 125 ft 57 kts 146°
2026-05-04 23:49 28.29246 -81.43911 92 ft 43 kts 140°
2026-05-04 23:49 28.29141 -81.43813 94 ft 7 kts 52°
2026-05-04 23:49 28.29169 -81.43764 92 ft 7 kts 52°
2026-05-04 23:49 28.29179 -81.43748 93 ft 0 kts 58°
2026-05-04 23:50 28.29200 -81.43707 92 ft 13 kts 60°
2026-05-04 23:50 28.29247 -81.43624 90 ft 11 kts 56°
2026-05-04 23:50 28.29284 -81.43556 89 ft 10 kts 60°
2026-05-04 23:50 28.29321 -81.43497 89 ft 10 kts 35°
2026-05-04 23:51 28.29333 -81.43521 89 ft 6 kts 201°
2026-05-04 23:51 28.29321 -81.43533 91 ft 0 kts 270°
2026-05-04 23:51 28.29322 -81.43536 90 ft 0 kts 318°